Location: Unspecified
(51.0950°N, 12.9690°E)
Time: 17:24:41
(UTC+00:00)

NOSS 8 (H) - Pass Details

Date: 28 October 2021
Orbit: 371 x 1792 km, 63.3° (Epoch: 02 December)

Event Time Altitude Azimuth Distance (km) Brightness Sun altitude
Rises 16:55:50 0° 223° (SW) 2,464 9.0 -11.0°
Reaches altitude 10° 16:58:03 10° 223° (SW) 1,489 7.8 -11.3°
Maximum altitude 17:01:12 89° 140° (SE) 386 4.0 -11.8°
Enters shadow 17:03:25 16° 45° (NE) 1,080 5.9 -12.2°
